TimeCDT,TemperatureF,Dew PointF,Humidity,Sea Level PressureIn,VisibilityMPH,Wind Direction,Wind SpeedMPH,Gust SpeedMPH,PrecipitationIn,Events,Conditions,WindDirDegrees,DateUTC
12:54 AM,60.1,43.0,53,30.08,10.0,South,4.6,-,N/A,,Clear,190,2011-10-16 05:54:00
1:54 AM,57.9,44.1,60,30.07,10.0,South,9.2,-,N/A,,Clear,180,2011-10-16 06:54:00
2:54 AM,59.0,43.0,55,30.06,10.0,SW,3.5,-,N/A,,Clear,220,2011-10-16 07:54:00
3:54 AM,57.0,44.1,62,30.05,10.0,South,5.8,-,N/A,,Clear,190,2011-10-16 08:54:00
4:54 AM,59.0,44.1,58,30.04,10.0,South,9.2,-,N/A,,Clear,190,2011-10-16 09:54:00
5:54 AM,61.0,45.0,56,30.05,10.0,South,10.4,-,N/A,,Clear,190,2011-10-16 10:54:00
6:54 AM,61.0,46.0,58,30.06,10.0,SSW,8.1,-,N/A,,Clear,200,2011-10-16 11:54:00
7:54 AM,63.0,46.9,56,30.06,10.0,South,9.2,-,N/A,,Clear,190,2011-10-16 12:54:00
8:54 AM,66.9,50.0,54,30.08,10.0,SSW,10.4,-,N/A,,Clear,210,2011-10-16 13:54:00
9:54 AM,72.0,54.0,53,30.08,10.0,SSW,8.1,-,N/A,,Clear,210,2011-10-16 14:54:00
10:54 AM,75.9,54.0,46,30.07,10.0,SW,10.4,23.0,N/A,,Clear,230,2011-10-16 15:54:00
11:54 AM,80.1,55.0,42,30.06,10.0,WSW,12.7,-,N/A,,Partly Cloudy,240,2011-10-16 16:54:00
12:54 PM,82.9,53.1,36,30.02,10.0,SW,16.1,40.3,N/A,,Partly Cloudy,220,2011-10-16 17:54:00
1:54 PM,84.9,50.0,30,29.99,10.0,SW,12.7,21.9,N/A,,Partly Cloudy,220,2011-10-16 18:54:00
2:54 PM,84.9,51.1,31,29.97,10.0,SW,11.5,20.7,N/A,,Partly Cloudy,230,2011-10-16 19:54:00
3:54 PM,86.0,48.9,28,29.96,10.0,SW,10.4,19.6,N/A,,Partly Cloudy,220,2011-10-16 20:54:00
4:54 PM,84.0,48.9,29,29.95,10.0,SW,9.2,-,N/A,,Partly Cloudy,230,2011-10-16 21:54:00
5:54 PM,81.0,48.9,33,29.93,10.0,SW,6.9,-,N/A,,Partly Cloudy,220,2011-10-16 22:54:00
6:54 PM,77.0,48.0,36,29.93,10.0,SSW,6.9,-,N/A,,Clear,200,2011-10-16 23:54:00
7:54 PM,73.9,48.0,40,29.93,10.0,SSW,8.1,-,N/A,,Partly Cloudy,200,2011-10-17 00:54:00
8:54 PM,72.0,48.0,43,29.93,10.0,SSW,9.2,-,N/A,,Clear,200,2011-10-17 01:54:00
9:54 PM,72.0,48.0,43,29.94,10.0,SSW,4.6,-,N/A,,Clear,200,2011-10-17 02:54:00
10:54 PM,69.1,48.9,49,29.94,10.0,SSW,8.1,-,N/A,,Clear,200,2011-10-17 03:54:00
11:54 PM,68.0,50.0,52,29.94,10.0,SSW,4.6,-,N/A,,Clear,210,2011-10-17 04:54:00